Weather History for KSAC - March, 2013

Change the Weather History Date:

Saturday, March 30, 2013

  Actual Average Record
Temperature  
Mean Temperature 62 °F -  
Max Temperature 74 °F 67 °F 83 °F (2001)
Min Temperature 50 °F 45 °F 33 °F (1972)
Degree Days  
Heating Degree Days 3    
Cooling Degree Days 0    
Growing Degree Days 12 (Base 50)    
Moisture  
Dew Point 49 °F    
Average Humidity 67    
Maximum Humidity 89    
Minimum Humidity 44    
Precipitation  
Precipitation 0.00 in 0.06 in 0.78 in (1967)
Month to date precipitation 0.66 2.69  
Year to date precipitation 1.98 9.80  
Since 1 July precipitation 13.27  
Sea Level Pressure  
Sea Level Pressure 30.00 in    
Wind  
Wind Speed 3 mph (SW)    
Max Wind Speed 16 mph    
Max Gust Speed 20 mph    
Visibility 10 miles    
Events Rain , Thunderstorm    
T = Trace of Precipitation, MM = Missing Value Source: NWS Daily Summary

Daily Weather History Graph

Daily Weather History Graph

Search for Another Location

Airport or City:

Trip Planner

Search our weather history database for the weather conditions in past years. The results will help you decide how hot, cold, wet, or windy it might be!

Date:

Astronomy

Mar. 30, 2013 Rise Set
Actual Time 6:53 AM PDT 7:27 PM PDT
Civil Twilight 6:26 AM PDT 7:54 PM PDT
Nautical Twilight 5:55 AM PDT 8:25 PM PDT
Astronomical Twilight 5:23 AM PDT 8:58 PM PDT
Moon 11:37 PM PDT (3/30) 8:55 AM PDT (3/30)
Length of Visible Light 13h 27m
Length of Day
12h 34m
Waning Gibbous, 85% of the Moon is Illuminated
Mar 30
Waning Gibbous
Apr 2
Last Quarter
Apr 10
New
Apr 18
First Quarter
Apr 25
Full

Hourly Weather History & Observations

Time (PDT) Temp. Dew Point Humidity Pressure Visibility Wind Dir Wind Speed Gust Speed Precip Events Conditions
12:53 AM 55.0 °F 48.9 °F 80% 30.01 in 10.0 mi Calm Calm - N/A   Clear
1:53 AM 53.1 °F 48.9 °F 86% 30.02 in 10.0 mi Calm Calm - N/A   Clear
2:53 AM 53.1 °F 48.9 °F 86% 30.01 in 10.0 mi Calm Calm - N/A   Clear
3:53 AM 53.1 °F 48.0 °F 83% 30.00 in 10.0 mi Calm Calm - N/A   Clear
4:53 AM 51.1 °F 48.0 °F 89% 30.00 in 9.0 mi SW 3.5 mph - N/A   Clear
5:53 AM 52.0 °F 48.0 °F 86% 30.00 in 10.0 mi Calm Calm - N/A   Clear
6:53 AM 51.1 °F 46.9 °F 86% 30.01 in 10.0 mi Calm Calm - N/A   Clear
7:53 AM 54.0 °F 48.9 °F 83% 30.02 in 10.0 mi Calm Calm - N/A   Clear
8:53 AM 55.0 °F 50.0 °F 83% 30.04 in 10.0 mi SSW 4.6 mph - N/A   Clear
9:53 AM 59.0 °F 48.9 °F 69% 30.04 in 10.0 mi WSW 3.5 mph - N/A   Clear
10:53 AM 64.0 °F 48.9 °F 58% 30.04 in 10.0 mi SW 3.5 mph - N/A   Clear
11:53 AM 68.0 °F 50.0 °F 52% 30.04 in 10.0 mi South 4.6 mph - N/A   Clear
12:53 PM 69.1 °F 52.0 °F 54% 30.03 in 10.0 mi South 4.6 mph - N/A   Partly Cloudy
1:53 PM 71.1 °F 48.9 °F 45% 30.01 in 10.0 mi SSW 4.6 mph - N/A   Clear
2:53 PM 72.0 °F 52.0 °F 49% 29.99 in 10.0 mi SSW 9.2 mph - N/A   Clear
3:53 PM 72.0 °F 50.0 °F 46% 29.98 in 10.0 mi SW 13.8 mph - N/A   Clear
4:53 PM 71.1 °F 50.0 °F 47% 29.98 in 10.0 mi SW 11.5 mph - N/A   Partly Cloudy
5:53 PM 68.0 °F 46.0 °F 45% 29.97 in 10.0 mi WSW 10.4 mph - N/A   Scattered Clouds
6:53 PM 66.0 °F 48.0 °F 52% 29.96 in 10.0 mi WSW 10.4 mph - N/A   Mostly Cloudy
7:53 PM 64.0 °F 48.9 °F 58% 29.97 in 10.0 mi WSW 8.1 mph - N/A   Mostly Cloudy
8:53 PM 62.1 °F 48.9 °F 62% 29.98 in 10.0 mi SW 6.9 mph - N/A   Scattered Clouds
9:53 PM 61.0 °F 50.0 °F 67% 29.99 in 10.0 mi SW 6.9 mph - N/A   Mostly Cloudy
10:53 PM 60.1 °F 48.9 °F 67% 30.00 in 10.0 mi SSW 3.5 mph - N/A   Overcast
11:07 PM 60.8 °F 48.2 °F 63% 29.99 in 10.0 mi SSE 4.6 mph - N/A Thunderstorm Overcast
11:22 PM 60.8 °F 48.2 °F 63% 30.00 in 10.0 mi SSW 4.6 mph - N/A   Overcast
11:32 PM 60.8 °F 48.2 °F 63% 30.01 in 10.0 mi SW 5.8 mph - N/A Thunderstorm Overcast
11:53 PM 57.9 °F 52.0 °F 81% 30.03 in 8.0 mi Variable 3.5 mph - 0.01 in Rain , Thunderstorm Thunderstorms and Rain